ZHUHAI-1 01 (CAS 4A)

Last updated on Mon Sep 14 2020 05:43:41 GMT+0000 (Coordinated Universal Time)

1 42761U 17034D 20257.87109645 .00000149 00000-0 22432-4 0 9992 2 42761 43.0185 260.4851 0011629 235.2702 192.1460 15.09959381179335
UTC large
Height (km)
Speed (km/s)
/
Latitude / Longitude
Inclination (degrees)
Orbital Period (minutes)
Azimuth
Elevation
Range (km)
Doppler Factor

Next 0 passes for location: London (51.5072 / 0.1276)

Sorry there are no passes over London.